Regional Weather Roundup
Issued by NWS

Home | Current Version | Previous Version | Text Only | Print | Product List | Glossary On
Versions: 1 2 3 4 5 6 7 8 9 10 11 12 13 14 15 16 17 18 19 20 21 22 23 24 25 26 27 28 29 30 31 32 33 34 35 36 37 38 39 40 41 42 43 44 45 46 47 48 49 50
000
ASUS43 KIND 311209
RWRIN

WEATHER ROUNDUP FOR INDIANA
NATIONAL WEATHER SERVICE INDIANAPOLIS IN
800 AM EDT FRI JUL 31 2015

NOTE: "FAIR" INDICATES FEW OR NO CLOUDS BELOW 12,000 FEET WITH NO
SIGNIFICANT WEATHER AND/OR OBSTRUCTIONS TO VISIBILITY.

* - STATION DOES NOT REPORT WEATHER SUCH AS PRECIPITATION OR FOG.

+ - STATION NOT QUALITY CONTROLLED BY THE NATIONAL WEATHER SERVICE.
    USE DATA WITH CAUTION...ESPECIALLY DEWPOINT AND RELATIVE
    HUMIDITY OBSERVATIONS.

INZ001>003-010>013-019-020-311300-
NORTHWEST INDIANA

CITY           SKY/WX    TMP DP  RH WIND       PRES   REMARKS
GARY /AIRPORT/ SUNNY     70  63  78 MISG      30.03S
KNOX *+        SUNNY     64  63  94 W5        30.03R
LA PORTE +     SUNNY     69  63  81 W5        30.04R
6HR MIN TEMP:  64; 6HR MAX TEMP:  69;

MICHIGAN CITY+ SUNNY     64  63  94 CALM      30.02S
MONTICELLO +   SUNNY     65  64  98 W3        30.05R
6HR MIN TEMP:  63; 6HR MAX TEMP:  67;

RENSSELAER +   SUNNY     64  64 100 SW6       30.06R
VALPARAISO     SUNNY     68  62  81 W5        30.04R
6HR MIN TEMP:  64; 6HR MAX TEMP:  68;


$$

LMZ046-743>745-311300-
SOUTHERN LAKE MICHIGAN

STATION/POSITION TIME  TEMP    WIND        PRES    WAVE
                       AIR SEA DIR/SP/G            HT
                 (UTC) (F)     (DEG/KT/KT) (MB)    (FT)
BURNS HARBOR     1100   72     210/  5/  7 1016.6F
MICHIGAN CITY    1100   71     190/  9/ 10   N/A
5NW MICH CITY    1200   74 73  250/  8/ 12   N/A     2

$$

INZ004-005-014>016-021>024-311300-
NORTH CENTRAL INDIANA

CITY           SKY/WX    TMP DP  RH WIND       PRES   REMARKS
GOSHEN         SUNNY     67  62  84 W3        30.02R
6HR MIN TEMP:  62; 6HR MAX TEMP:  67;

LOGANSPORT +   SUNNY     64  61  88 W7        30.06R
PERU/GRISSOM   SUNNY     66  64  91 W8        30.05R
6HR MIN TEMP:  63; 6HR MAX TEMP:  68;

ROCHESTER +    SUNNY     70  64  83 W3        30.05R
SOUTH BEND     SUNNY     68  62  81 SW5       30.03R
6HR MIN TEMP:  65; 6HR MAX TEMP:  68;

WARSAW +       SUNNY     66  61  82 W3        30.04R

$$

INZ006>009-017-018-025>027-311300-
NORTHEAST INDIANA

CITY           SKY/WX    TMP DP  RH WIND       PRES   REMARKS
ANGOLA *+      SUNNY     70  63  78 W3        30.01S
AUBURN +       SUNNY     66  59  77 W5        30.03R
FORT WAYNE     SUNNY     69  62  78 W9        30.03R
6HR MIN TEMP:  64; 6HR MAX TEMP:  69;

HUNTINGTON +   SUNNY     67  63  86 W5        30.03R
6HR MIN TEMP:  65; 6HR MAX TEMP:  68;


$$

INZ028-029-035-036-043>045-051>053-311300-
WEST CENTRAL INDIANA

CITY           SKY/WX    TMP DP  RH WIND       PRES   REMARKS
CRAWFORDSVL +  SUNNY     65  65 100 W3          N/A
6HR MIN TEMP:  61; 6HR MAX TEMP:  65; 6HR PCP:  0.01;

GREENCASTLE +  SUNNY     68  61  77 NW5       30.09R
LAFAYETTE      SUNNY     65  64  97 CALM      30.07R
6HR MIN TEMP:  61; 6HR MAX TEMP:  66;

TERRE HAUTE    SUNNY     69  65  86 NW3       30.08R
6HR MIN TEMP:  62; 6HR MAX TEMP:  69;


$$

INZ030>032-037>040-046>048-054>057-064-065-311300-
CENTRAL INDIANA

CITY           SKY/WX    TMP DP  RH WIND       PRES   REMARKS
COLUMBUS       SUNNY     63  59  88 CALM      30.06
FRANKFORT +    SUNNY    N/A N/A N/A CALM      30.09R
GREENWOOD *+   SUNNY     68  63  83 CALM      30.08R
INDIANAPOLIS   MOSUNNY   71  63  75 NW7       30.06R
6HR MIN TEMP:  66; 6HR MAX TEMP:  71;

-EAGLE CREEK   SUNNY     70  64  81 N5        30.07R
6HR MIN TEMP:  66; 6HR MAX TEMP:  73;

KOKOMO *+      SUNNY     68  61  77 W8        30.06R
6HR MIN TEMP:  64; 6HR MAX TEMP:  70;

MARION +       SUNNY     64  62  94 W3        30.06R
MT COMFORT *+  SUNNY     70 N/A N/A NW7       30.07R
SHELBYVILLE    SUNNY     68  64  87 W3        30.06R
6HR MIN TEMP:  64; 6HR MAX TEMP:  68;

ZIONSVILLE +   SUNNY     69  62  80 NW6       30.08R
6HR MIN TEMP:  65; 6HR MAX TEMP:  69;


$$

INZ033-034-041-042-049-050-058-059-311300-
EAST CENTRAL INDIANA

CITY           SKY/WX    TMP DP  RH WIND       PRES   REMARKS
MUNCIE         SUNNY     67  62  84 NW7       30.05R
6HR MIN TEMP:  63; 6HR MAX TEMP:  67;


$$

INZ060-061-067>069-081>083-085>088-311300-
SOUTHWEST INDIANA

CITY           SKY/WX    TMP DP  RH WIND       PRES   REMARKS
EVANSVILLE     SUNNY     72  65  78 CALM      30.09R
6HR MIN TEMP:  71; 6HR MAX TEMP:  76;

HUNTINGBURG *+ SUNNY     66  64  94 CALM      30.09R
6HR MIN TEMP:  64; 6HR MAX TEMP:  66;

WASHINGTON +   SUNNY     67  63  87 CALM      30.08R
6HR MIN TEMP:  63; 6HR MAX TEMP:  69;


$$

INZ062-063-066-070>080-084-089>092-311300-
SOUTH CENTRAL AND SOUTHEAST INDIANA

CITY           SKY/WX    TMP DP  RH WIND       PRES   REMARKS
BLOOMINGTON    SUNNY     68  64  87 NW3       30.09R
6HR MIN TEMP:  61; 6HR MAX TEMP:  68;

MADISON *+     SUNNY     64  63  94 CALM      30.10S
NORTH VERNON + SUNNY     64  64 100 CALM      30.09R
SEYMOUR +      SUNNY     66  66 100 CALM      30.08R

$$



USA.gov is the U.S. government's official web portal to all federal, state and local government web resources and services.